When you browse on this site, cookies collect data to enhance your experience and personalize the content and advertising you see.
Visit our Privacy Policy to learn more. By continuing to use the site, you agree to this use of cookies and data.
  • In Romania
  • List of Countries
  • For 7 days
  • Water Temperature
  • Satellite Maps
  • Weather Map
  • Weather Widgets
  • user-avatar
    Login

    Hourly Weather Apanasenko

    Today, 20 November, Tuesday

    Time Temperature Precipitation Wind Pressure Humidity
    00:00 +1°C° 0 mm 3 mps 738 mmHg 80%
    01:00 +1°C° 0 mm 3 mps 737 mmHg 80%
    02:00 +1°C° 0 mm 3 mps 737 mmHg 79%
    03:00 +1°C° 0 mm 3 mps 737 mmHg 79%
    04:00 +1°C° 0.1 mm 3 mps 737 mmHg 80%
    05:00 +2°C° 0.1 mm 2 mps 737 mmHg 81%
    06:00 +2°C° 0.1 mm 2 mps 736 mmHg 82%
    07:00 +2°C° 0.3 mm 2 mps 736 mmHg 83%
    08:00 +3°C° 0.3 mm 2 mps 736 mmHg 84%
    09:00 +3°C° 0.3 mm 2 mps 736 mmHg 85%
    10:00 +3°C° 0.7 mm 2 mps 736 mmHg 84%
    11:00 +3°C° 0.7 mm 2 mps 736 mmHg 84%
    12:00 +4°C° 0.7 mm 2 mps 735 mmHg 83%
    13:00 +4°C° 0.7 mm 2 mps 735 mmHg 83%
    14:00 +5°C° 0.7 mm 2 mps 735 mmHg 82%
    15:00 +6°C° 0.7 mm 1 mps 735 mmHg 82%
    16:00 +6°C° 0.2 mm 1 mps 735 mmHg 82%
    17:00 +6°C° 0.2 mm 1 mps 735 mmHg 83%
    18:00 +6°C° 0.2 mm 1 mps 735 mmHg 83%
    19:00 +6°C° 0.1 mm 1 mps 735 mmHg 84%
    20:00 +7°C° 0.1 mm 1 mps 735 mmHg 84%
    21:00 +6°C° 0.1 mm 2 mps 735 mmHg 84%
    22:00 +6°C° 0 mm 2 mps 735 mmHg 85%
    23:00 +5°C° 0 mm 3 mps 735 mmHg 87%

    Tomorrow, 21 November, Wednesday

    Time Temperature Precipitation Wind Pressure Humidity
    00:00 +6°C° 0 mm 4 mps 736 mmHg 89%
    01:00 +5°C° 0 mm 4 mps 736 mmHg 89%
    02:00 +5°C° 0 mm 4 mps 736 mmHg 89%
    03:00 +5°C° 0 mm 4 mps 736 mmHg 89%
    04:00 +5°C° 0 mm 4 mps 737 mmHg 89%
    05:00 +4°C° 0 mm 3 mps 737 mmHg 89%
    06:00 +4°C° 0 mm 3 mps 737 mmHg 89%
    07:00 +5°C° 0 mm 2 mps 737 mmHg 89%
    08:00 +5°C° 0 mm 2 mps 737 mmHg 88%
    09:00 +6°C° 0 mm 1 mps 737 mmHg 88%
    10:00 +6°C° 0 mm 1 mps 737 mmHg 85%
    11:00 +7°C° 0 mm 1 mps 737 mmHg 82%
    12:00 +7°C° 0 mm 1 mps 736 mmHg 79%
    13:00 +7°C° 0 mm 1 mps 736 mmHg 79%
    14:00 +7°C° 0 mm 1 mps 736 mmHg 79%
    15:00 +7°C° 0 mm 1 mps 735 mmHg 79%
    16:00 +7°C° 0 mm 1 mps 736 mmHg 81%
    17:00 +6°C° 0 mm 2 mps 736 mmHg 83%
    18:00 +5°C° 0 mm 2 mps 736 mmHg 85%
    19:00 +5°C° 0 mm 2 mps 736 mmHg 86%
    20:00 +5°C° 0 mm 2 mps 736 mmHg 87%
    21:00 +5°C° 0 mm 1 mps 736 mmHg 88%
    22:00 +5°C° 0 mm 1 mps 736 mmHg 88%
    23:00 +5°C° 0 mm 1 mps 736 mmHg 88%

    Day after tomorrow, 22 November, Thursday

    Time Temperature Precipitation Wind Pressure Humidity
    00:00 +4°C° 0 mm 1 mps 735 mmHg 88%
    01:00 +4°C° 0 mm 1 mps 735 mmHg 88%
    02:00 +4°C° 0 mm 1 mps 735 mmHg 88%
    03:00 +4°C° 0 mm 1 mps 735 mmHg 87%
    04:00 +4°C° 0 mm 1 mps 735 mmHg 87%
    05:00 +4°C° 0 mm 1 mps 735 mmHg 87%
    06:00 +4°C° 0 mm 1 mps 736 mmHg 87%
    07:00 +4°C° 0 mm 1 mps 736 mmHg 86%
    08:00 +4°C° 0 mm 1 mps 736 mmHg 85%
    09:00 +4°C° 0 mm 1 mps 736 mmHg 83%
    10:00 +5°C° 0 mm 1 mps 736 mmHg 81%
    11:00 +5°C° 0 mm 1 mps 736 mmHg 78%
    12:00 +6°C° 0 mm 1 mps 735 mmHg 75%
    13:00 +6°C° 0 mm 1 mps 735 mmHg 74%
    14:00 +6°C° 0 mm 1 mps 735 mmHg 72%
    15:00 +6°C° 0 mm 1 mps 735 mmHg 71%
    16:00 +6°C° 0 mm 1 mps 735 mmHg 73%
    17:00 +5°C° 0 mm 1 mps 736 mmHg 74%
    18:00 +5°C° 0 mm 1 mps 736 mmHg 76%
    19:00 +4°C° 0 mm 1 mps 736 mmHg 78%
    20:00 +3°C° 0 mm 1 mps 736 mmHg 79%
    21:00 +3°C° 0 mm 1 mps 736 mmHg 80%
    22:00 +2°C° 0 mm 1 mps 736 mmHg 81%
    23:00 +2°C° 0 mm 1 mps 736 mmHg 81%

    23 November, Friday

    Time Temperature Precipitation Wind Pressure Humidity
    00:00 +2°C° 0 mm 1 mps 736 mmHg 81%
    01:00 +2°C° 0 mm 1 mps 736 mmHg 82%
    02:00 +1°C° 0 mm 1 mps 736 mmHg 83%
    03:00 +1°C° 0 mm 1 mps 736 mmHg 84%
    04:00 -1°C° 0 mm 2 mps 736 mmHg 84%
    05:00 -1°C° 0 mm 2 mps 736 mmHg 84%
    06:00 -1°C° 0 mm 2 mps 736 mmHg 85%
    07:00 0°C° 0 mm 3 mps 737 mmHg 79%
    08:00 -1°C° 0 mm 4 mps 737 mmHg 74%
    09:00 0°C° 0 mm 4 mps 738 mmHg 69%
    10:00 +1°C° 0 mm 5 mps 738 mmHg 62%
    11:00 +2°C° 0 mm 5 mps 738 mmHg 54%
    12:00 +3°C° 0 mm 5 mps 738 mmHg 47%
    13:00 +3°C° 0 mm 5 mps 739 mmHg 48%
    14:00 +2°C° 0 mm 5 mps 739 mmHg 50%
    15:00 +2°C° 0 mm 5 mps 740 mmHg 51%
    16:00 +1°C° 0 mm 4 mps 741 mmHg 58%
    17:00 0°C° 0 mm 3 mps 742 mmHg 65%
    18:00 -1°C° 0 mm 2 mps 743 mmHg 72%
    19:00 -2°C° 0 mm 2 mps 743 mmHg 75%
    20:00 -2°C° 0 mm 2 mps 744 mmHg 78%
    21:00 -3°C° 0 mm 2 mps 744 mmHg 82%
    22:00 -3°C° 0 mm 2 mps 744 mmHg 82%
    23:00 -3°C° 0 mm 2 mps 745 mmHg 82%

    24 November, Saturday

    Time Temperature Precipitation Wind Pressure Humidity
    00:00 -3°C° 0 mm 2 mps 745 mmHg 83%
    01:00 -3°C° 0 mm 2 mps 745 mmHg 82%
    02:00 -4°C° 0 mm 3 mps 745 mmHg 81%
    03:00 -4°C° 0 mm 3 mps 745 mmHg 81%
    04:00 -4°C° 0 mm 3 mps 745 mmHg 80%
    05:00 -5°C° 0 mm 3 mps 745 mmHg 80%
    06:00 -5°C° 0 mm 4 mps 745 mmHg 80%
    07:00 -4°C° 0 mm 4 mps 745 mmHg 76%
    08:00 -4°C° 0 mm 4 mps 745 mmHg 73%
    09:00 -4°C° 0 mm 5 mps 745 mmHg 70%
    10:00 -2°C° 0 mm 5 mps 745 mmHg 65%
    11:00 -1°C° 0 mm 5 mps 744 mmHg 61%
    12:00 0°C° 0 mm 5 mps 744 mmHg 57%
    13:00 +1°C° 0 mm 5 mps 743 mmHg 57%
    14:00 +1°C° 0 mm 5 mps 743 mmHg 56%
    15:00 +1°C° 0 mm 5 mps 743 mmHg 56%
    16:00 0°C° 0 mm 4 mps 743 mmHg 60%
    17:00 -1°C° 0 mm 4 mps 743 mmHg 64%
    18:00 -2°C° 0 mm 3 mps 743 mmHg 68%
    19:00 -2°C° 0 mm 3 mps 743 mmHg 70%
    20:00 -2°C° 0 mm 2 mps 742 mmHg 71%
    21:00 -2°C° 0 mm 2 mps 742 mmHg 72%
    22:00 -2°C° 0 mm 2 mps 742 mmHg 73%
    23:00 0°C° 0 mm 1 mps 741 mmHg 73%

    25 November, Sunday

    Time Temperature Precipitation Wind Pressure Humidity
    00:00 0°C° 0 mm 1 mps 741 mmHg 74%
    01:00 0°C° 0 mm 1 mps 741 mmHg 73%
    02:00 0°C° 0 mm 1 mps 741 mmHg 72%
    03:00 0°C° 0 mm 0 mps 740 mmHg 72%
    04:00 0°C° 0 mm 0 mps 740 mmHg 70%
    05:00 0°C° 0 mm 0 mps 740 mmHg 67%
    06:00 0°C° 0 mm 0 mps 739 mmHg 65%
    07:00 +1°C° 0 mm 0 mps 739 mmHg 61%
    08:00 +2°C° 0 mm 0 mps 739 mmHg 57%
    09:00 +3°C° 0 mm 0 mps 739 mmHg 53%
    10:00 +6°C° 0 mm 1 mps 739 mmHg 47%
    11:00 +7°C° 0 mm 1 mps 738 mmHg 42%
    12:00 +9°C° 0 mm 1 mps 738 mmHg 36%
    13:00 +9°C° 0 mm 1 mps 738 mmHg 38%
    14:00 +9°C° 0 mm 1 mps 738 mmHg 40%
    15:00 +8°C° 0 mm 0 mps 737 mmHg 42%
    16:00 +6°C° 0 mm 0 mps 738 mmHg 45%
    17:00 +5°C° 0 mm 0 mps 738 mmHg 48%
    18:00 +4°C° 0 mm 0 mps 738 mmHg 50%
    19:00 +3°C° 0 mm 0 mps 738 mmHg 51%
    20:00 +3°C° 0 mm 0 mps 737 mmHg 51%
    21:00 +3°C° 0 mm 0 mps 737 mmHg 51%
    22:00 +3°C° 0 mm 0 mps 737 mmHg 52%
    23:00 +3°C° 0 mm 0 mps 737 mmHg 52%
    Show more